Location: Br?iasa
(46.1833°N, 22.6167°E)
Time: 16:33:07
(UTC+00:00)

Daily predictions for brighter satellites

Satellite Brightness Start Highest point End
(mag) Time Altitude Azimuth Time Altitude Azimuth Time Altitude Azimuth
BREEZE-M DEB (TANK) 4.0 15:40:00 10° W 15:43:16 60° NNW 15:54:07 10° ENE
COSMOS 2487 4.2 15:47:18 10° NW 15:50:31 38° WSW 15:53:43 10° S
Cosmos 1300 3.1 15:47:35 10° SSE 15:51:11 42° E 15:54:49 10° NNE
Radarsat Rocket 4.3 15:45:39 10° SSE 15:51:42 74° WSW 15:57:32 10° NNW
Cosmos 1606 Rocket 3.6 15:47:28 10° S 15:51:45 58° E 15:56:05 10° NNE
SMAP 3.1 15:47:35 10° SSE 15:52:15 86° ENE 15:56:56 10° NNW
FALCON 9 DEB 3.0 15:50:27 10° SW 15:53:40 70° SSE 15:56:53 10° ENE
CZ-4 R/B 2.8 15:51:19 10° ESE 15:53:44 16° ENE 15:56:10 10° NNE
ADEOS Rocket 3.5 15:47:58 10° NNE 15:54:25 79° WNW 16:01:35 10° SSW
Cosmos 2058 4.4 15:53:29 10° NNE 15:56:04 16° ENE 15:58:39 10° ESE
Cosmos 1110 Rocket 4.0 15:51:33 10° SSW 15:56:49 88° ESE 16:02:04 10° NNE
FALCON 9 DEB 2.9 15:53:38 10° SW 15:56:50 78° SSE 16:00:02 10° ENE
USA 281 3.3 15:50:20 10° SSE 15:56:54 89° WSW 16:03:31 10° NNW
Cosmos 1302 Rocket 4.4 15:54:05 10° S 15:59:03 44° ESE 16:04:04 10° NNE
NOAA 11 4.2 15:53:54 10° SSE 15:59:13 59° ENE 16:04:34 10° N
SAR-Lupe-4 4.3 15:57:23 10° NNE 16:00:40 32° E 16:03:54 10° SSE
SKYMED 2 4.4 15:57:30 10° NE 16:01:21 30° E 16:05:09 10° SSE
CZ-2D R/B 4.3 15:59:15 10° ESE 16:02:23 25° ENE 16:05:31 10° NNE
Meteor 2-16 Rocket 4.4 15:57:07 10° N 16:03:12 63° ENE 16:09:13 10° SSE
SL-4 R/B 2.7 16:00:46 10° WNW 16:03:59 33° N 16:07:12 11° ENE
ERS-2 2.0 16:00:48 10° NNE 16:04:26 69° ESE 16:08:03 10° S
Okean-O 3.6 16:01:07 10° ESE 16:04:47 26° ENE 16:08:27 10° N
Envisat 4.1 16:00:25 10° S 16:05:20 50° W 16:10:18 10° NNW
Cosmos 1346 Rocket 4.1 16:03:30 10° NNE 16:06:34 21° ENE 16:09:36 10° ESE
Cosmos 1486 Rocket 4.5 16:02:45 10° N 16:07:46 40° ENE 16:12:44 10° SE
AQUARIUS 4.5 16:05:35 10° S 16:10:04 72° WSW 16:14:35 10° NNW
FALCON 9 DEB 2.9 16:06:51 10° WSW 16:10:07 87° NNW 16:13:00 13° ENE
Cosmos 1980 Rocket 3.8 16:08:45 10° ESE 16:10:43 12° E 16:11:34 11° E
Cosmos 1340 3.0 16:07:25 10° N 16:11:01 41° ENE 16:14:38 10° SSE
Cosmos 2297 Rocket 2.3 16:05:36 10° NNW 16:11:14 59° ENE 16:16:48 10° SE
CORIOLIS 4.4 16:07:00 10° S 16:12:20 77° WSW 16:17:45 10° NNW
In-Cosmos 22 Rocket 4.3 16:08:30 10° N 16:13:43 49° ENE 16:19:00 10° SSE
Cosmos 1315 Rocket 4.2 16:12:05 10° SE 16:14:43 17° E 16:17:23 10° NE
USA 305 3.5 16:12:13 10° NW 16:16:20 42° NNE 16:19:35 15° E
Cosmos 1244 Rocket 4.5 16:12:05 10° N 16:18:17 69° E 16:24:31 10° SSE
SAR-Lupe-1 4.2 16:15:05 10° NNE 16:18:35 49° E 16:22:04 10° S
Aureole 3 2.8 16:15:45 10° S 16:18:45 46° E 16:21:38 10° NNE
FALCON 9 DEB 3.1 16:17:34 10° WSW 16:20:46 69° NNW 16:23:13 16° NE
Cosmos 1689 Rocket 2.6 16:18:51 10° NNE 16:21:33 35° E 16:24:14 10° SSE
Cosmos 1953 Rocket 3.7 16:17:51 10° N 16:22:17 82° W 16:26:44 10° S
USA 306 3.4 16:18:42 10° NW 16:22:50 44° NNE 16:25:47 17° E
CZ-4B R/B 1.5 16:20:01 10° N 16:23:15 71° WNW 16:26:21 10° SSW
FengYun 1-2 T 4.4 16:18:06 10° SSE 16:23:46 81° WSW 16:29:26 10° NNW
Cosmos 2058 Rocket 3.0 16:22:49 10° S 16:27:16 68° E 16:31:46 10° NNE
CZ-4C R/B 4.2 16:22:34 10° NNW 16:27:24 21° NNE 16:31:49 13° ENE
CZ-2C R/B 3.7 16:22:14 10° SE 16:27:33 40° ENE 16:32:43 10° N
Cosmos 1992 Rocket 4.4 16:32:10 10° S 16:36:57 38° ESE 16:41:45 10° NE
Meteor 2-10 Rocket 3.8 16:33:29 10° SSE 16:38:30 44° E 16:43:21 10° NNE
Cosmos 1455 2.9 16:35:51 10° SSE 16:39:10 30° E 16:42:11 12° NNE
Cosmos 2219 3.4 16:37:20 10° NNW 16:43:07 78° WSW 16:48:51 10° SSE
Cosmos 1076 Rocket 4.0 16:40:56 10° N 16:44:52 36° ENE 16:48:04 14° SE
SL-08 ROCKET BODY 4.4 16:42:40 10° N 16:48:47 70° E 16:54:57 10° SSE
COSMO-SKYMED 1 2.5 16:45:11 10° NNE 16:49:34 88° W 16:53:54 10° SSW
BREEZE-M R/B 3.7 16:45:46 10° WNW 16:49:36 63° NNE 16:53:43 24° E
Cosmos 2082 3.8 16:45:28 10° NNW 16:51:08 57° ENE 16:56:06 13° SE
ATLAS 5 CENTAUR R/B 4.2 16:49:33 10° NNW 16:51:15 12° N 16:53:02 10° NNE
Cosmos 44 4.3 16:47:47 10° WSW 16:52:06 42° NW 16:56:43 10° NNE
H-2A R/B 2.4 16:49:20 10° SE 16:54:29 46° ENE 16:59:41 10° N
S3M 3.9 16:49:55 10° S 16:55:54 62° E 17:02:00 10° NNE
ARGOS 3.7 16:54:30 23° ESE 16:57:14 37° ENE 17:02:11 10° N
NOSS 3-4 (A) 4.4 16:51:31 10° NNW 16:57:52 39° NE 17:01:08 27° E
NOSS 3-4 (C) 4.4 16:51:38 10° NNW 16:57:57 39° NE 17:01:12 27° E
SJ-11-01 4.5 16:55:26 16° SE 16:58:56 46° ENE 17:03:26 10° N
Cosmos 1656 3.8 16:56:14 10° SSW 17:01:48 79° WNW 17:07:29 10° NNE
CRYOSAT 2 4.4 16:57:04 10° NNE 17:01:50 51° E 17:06:33 10° SSE
Cosmos 1939 Rocket 3.8 16:58:32 10° S 17:02:23 49° W 17:06:12 10° NNW
GEOS 3 Rocket 3.9 17:00:23 29° ESE 17:02:48 50° NE 17:08:01 10° NNW
YAOGAN 1 2.4 16:58:48 10° SSE 17:03:07 75° ENE 17:07:27 10° N
SeaSat 1 3.1 17:03:39 33° ENE 17:04:27 35° NE 17:08:55 10° NNW
Cosmos 2369 3.8 16:59:51 10° S 17:05:24 54° ESE 17:09:18 19° NE
USA 307 2.8 17:02:00 10° NW 17:06:17 71° NNE 17:07:24 47° E
Cosmos 1417 Rocket 4.5 17:00:19 10° S 17:06:35 89° W 17:12:58 10° N
NOSS 3-3 (A) 3.8 17:01:36 10° SSW 17:07:18 65° ESE 17:11:34 22° NE
NOSS 3-3 (C) 3.9 17:01:43 10° SSW 17:07:26 65° ESE 17:11:38 22° NE
Cosmos 1812 Rocket 3.5 17:05:38 10° S 17:09:55 55° E 17:14:12 10° NNE
USA 215 4.0 17:07:14 25° ENE 17:10:18 39° NNE 17:16:15 10° NW
Cosmos 1408 2.5 17:06:42 10° N 17:10:23 89° WSW 17:14:02 10° S
USA 308 2.8 17:06:55 10° NW 17:11:12 76° NNE 17:12:08 53° E
Helios 1A Rocket 3.6 17:10:31 10° S 17:14:34 55° W 17:18:37 10° NNW
Cosmos 2227 Rocket 2.8 17:10:01 10° NNW 17:15:33 56° WSW 17:21:03 10° S
Cosmos 1892 3.6 17:12:27 10° NNW 17:16:13 49° W 17:19:58 10° S
CSL-04 Rocket 3.6 17:11:13 10° SSE 17:16:44 70° ENE 17:22:14 10° N
MOS 1 Rocket 3.3 17:14:33 10° NNE 17:19:15 65° E 17:24:13 10° S
Cosmos 2263 Rocket 3.1 17:14:34 10° N 17:19:27 31° NE 17:19:27 31° NE
ATLAS 2AS CENTAUR R/B 3.3 17:12:51 10° NNW 17:20:00 41° NE 17:22:01 35° ENE
Cosmos 968 Rocket 4.3 17:19:50 10° NNW 17:24:54 51° WSW 17:29:52 10° S
Meteor 2-15 Rocket 4.4 17:19:04 10° S 17:25:13 90° W 17:31:25 10° N
CZ-4 R/B 2.3 17:24:42 10° S 17:28:27 46° W 17:32:10 10° NNW
Cosmos 1697 Rocket 2.6 17:25:01 10° SSW 17:30:38 86° WNW 17:34:45 19° NNE
Cosmos 2151 4.4 17:26:31 10° N 17:28:26 25° NNE 17:28:26 25° NNE
Atlas Centaur 2 4.3 17:24:01 10° SW 17:30:39 26° S 17:33:48 21° SSE
Lacrosse 5 3.1 17:27:29 10° NW 17:31:48 27° NNE 17:32:14 27° NNE
Cosmos 2058 3.8 17:29:19 10° NNW 17:33:16 47° W 17:37:11 10° SSW
Meteor 2-1 Rocket 4.3 17:28:58 10° SSW 17:34:27 72° WNW 17:40:00 10° N
Cosmos 1825 2.4 17:30:56 10° NNW 17:34:21 65° NW 17:34:21 65° NW
Cosmos 44 Rocket 3.2 17:34:07 10° SSW 17:38:24 65° SSE 17:38:24 65° SSE
Timation 1 Rocket 4.2 17:33:43 10° NNW 17:39:47 86° ENE 17:41:44 46° SSE
Okean-O 4.2 17:37:02 10° SSW 17:41:06 35° W 17:45:12 10° NNW
Cosmos 1346 Rocket 4.5 17:39:24 10° NNW 17:43:00 34° W 17:46:37 10° SSW
SL-4 R/B 3.0 17:40:21 10° WNW 17:42:47 39° NW 17:42:47 39° NW
Cosmos 1315 Rocket 4.1 17:47:13 10° SW 17:50:57 39° WNW 17:54:02 14° N
Cosmos 1980 Rocket 2.0 17:48:07 10° SSW 17:53:25 76° SSE 17:53:25 76° SSE
Cosmos 2297 Rocket 4.4 17:50:28 10° NW 17:54:49 23° WSW 17:59:08 10° SSW
USA 305 3.8 17:52:17 10° WNW 17:55:45 47° WSW 17:55:45 47° WSW
USA 306 4.1 17:58:47 10° WNW 18:01:57 40° W 18:01:57 40° W
CZ-4C R/B 3.3 18:10:58 10° NNW 18:17:00 46° NNE 18:17:00 46° NNE
Cosmos 2278 4.2 18:19:46 10° SW 18:24:51 57° W 18:24:51 57° W
H-2A R/B 4.0 18:29:29 10° SSW 18:34:04 28° W 18:38:43 10° NW
ATLAS 5 CENTAUR R/B 4.5 18:35:19 10° NNW 18:36:16 12° N 18:36:16 12° N
SeaSat 1 4.1 18:43:28 31° WNW 18:43:28 31° WNW 18:46:32 10° NW
NOSS 3-4 (A) 4.1 18:42:16 10° NW 18:48:36 64° W 18:48:36 64° W
NOSS 3-4 (C) 4.1 18:42:22 10° NW 18:48:40 64° W 18:48:40 64° W
USA 215 3.9 18:54:35 51° NW 18:54:35 51° NW 18:59:20 10° NW
Cosmos 2263 Rocket 3.9 18:58:17 10° NW 19:01:09 29° NW 19:01:09 29° NW
ATLAS 2AS CENTAUR R/B 3.6 19:04:03 10° NW 19:09:28 47° WNW 19:09:28 47° WNW
